This is the latest recevied weather packets stored in our database for station/object W2TAO. If no packets are shown the sender has not sent any weather packets the latest 10 day(s).
| Time | Temp. | Humidity | Pressure | Rain* | Wind** | Luminosity | Snow |
|---|---|---|---|---|---|---|---|
| 1778177889 | 13.89° C | 44% | 1011 hPa | 0 mm | - | 226 W/m² | - |
| 1778177585 | 13.89° C | 43% | 1011 hPa | 0 mm | - | 343 W/m² | - |
| 1778177282 | 14.44° C | 43% | 1010.8 hPa | 0 mm | - | 956 W/m² | - |
| 1778176979 | 13.33° C | 46% | 1011.1 hPa | 0 mm | - | 910 W/m² | - |
| 1778176674 | 13.89° C | 44% | 1011.3 hPa | 0 mm | - | 870 W/m² | - |
| 1778176371 | 13.33° C | 46% | 1011.4 hPa | 0 mm | - | 937 W/m² | - |
| 1778176069 | 13.33° C | 46% | 1011.3 hPa | 0 mm | - | 174 W/m² | - |
| 1778175767 | 13.33° C | 47% | 1011.5 hPa | 0 mm | - | 194 W/m² | - |
| 1778175464 | 13.33° C | 47% | 1011.5 hPa | 0 mm | - | 194 W/m² | - |
| 1778175161 | 13.33° C | 42% | 1011.6 hPa | 0 mm | - | 934 W/m² | - |
| 1778174857 | 12.78° C | 42% | 1011.5 hPa | 0 mm | - | 866 W/m² | - |
| 1778174554 | 13.33° C | 41% | 1011.6 hPa | 0 mm | - | 877 W/m² | - |
| 1778174254 | 12.78° C | 47% | 1011.7 hPa | 0 mm | - | 866 W/m² | - |
| 1778173952 | 13.33° C | 48% | 1011.7 hPa | 0 mm | - | 901 W/m² | - |
| 1778173649 | 13.89° C | 45% | 1011.7 hPa | 0 mm | - | 900 W/m² | - |
| 1778173346 | 13.33° C | 46% | 1011.7 hPa | 0 mm | - | 942 W/m² | - |
| 1778173041 | 12.78° C | 45% | 1011.8 hPa | 0 mm | - | 478 W/m² | - |
| 1778172738 | 12.78° C | 46% | 1011.9 hPa | 0 mm | - | 913 W/m² | - |
| 1778172434 | 13.33° C | 47% | 1011.8 hPa | 0 mm | - | 851 W/m² | - |
| 1778172131 | 12.78° C | 47% | 1011.8 hPa | 0 mm | - | 837 W/m² | - |
| 1778171828 | 12.78° C | 52% | 1012 hPa | 0 mm | - | 825 W/m² | - |
| 1778171526 | 12.22° C | 48% | 1012.2 hPa | 0 mm | - | 274 W/m² | - |
| 1778171222 | 12.22° C | 47% | 1012 hPa | 0 mm | - | 279 W/m² | - |
| 1778170918 | 12.78° C | 48% | 1012.1 hPa | 0 mm | - | 732 W/m² | - |
| 1778170615 | 12.78° C | 54% | 1012.3 hPa | 0 mm | - | 696 W/m² | - |
* Rain latest hour (hover to see other rain measurements)
** Current wind speed in m/s (hover to see current wind gust speed)